Chippewa, MI

3:28 PM EDT on May 23, 2018 (GMT -0400)
Chippewa County International

Weather History for KCIU - October, 2013

Change the Weather History Date:

Wednesday, October 9, 2013

  Actual Average Record
Temperature  
Mean Temperature 58 °F -  
Max Temperature 71 °F 54 °F 75 °F (2003)
Min Temperature 46 °F 32 °F 19 °F (1980)
Degree Days  
Heating Degree Days 6    
Growing Degree Days 8 (Base 50)    
Moisture  
Dew Point 50 °F    
Average Humidity 78    
Maximum Humidity 100    
Minimum Humidity 50    
Precipitation  
Precipitation 0.00 in - - ()
Sea Level Pressure  
Sea Level Pressure 30.19 in    
Wind  
Wind Speed 7 mph (SSE)    
Max Wind Speed 13 mph    
Max Gust Speed 18 mph    
Visibility 10 miles    
Events      
Averages and records for this station are not official NWS values.
T = Trace of Precipitation, MM = Missing Value Source: NWS Daily Summary

Daily Weather History Graph

Daily Weather History Graph

Search for Another Location

Airport or City:

Astronomy

Oct. 09, 2013 Rise Set
Actual Time 7:47 AM EDT 7:02 PM EDT
Civil Twilight 7:17 AM EDT 7:32 PM EDT
Nautical Twilight 6:42 AM EDT 8:06 PM EDT
Astronomical Twilight 6:07 AM EDT 8:41 PM EDT
Moon 12:55 PM EDT (10/9) 10:22 PM EDT (10/9)
Length of Visible Light 12h 14m
Length of Day
11h 14m
Waxing Crescent, 25% of the Moon is Illuminated
Oct 9
Waxing Crescent
Oct 11
First Quarter
Oct 18
Full
Oct 26
Last Quarter
Nov 3
New

Hourly Weather History & Observations

Time (EDT) Temp. Windchill Dew Point Humidity Pressure Visibility Wind Dir Wind Speed Gust Speed Precip Events Conditions
12:15 AM 53.6 °F - 46.4 °F 77% 30.16 in 10.0 mi SSE 6.9 mph - N/A   Clear
12:35 AM 51.8 °F - 46.4 °F 82% 30.15 in 10.0 mi SE 9.2 mph - N/A   Clear
12:55 AM 51.8 °F - 48.2 °F 88% 30.15 in 10.0 mi SE 6.9 mph - N/A   Clear
1:15 AM 50.0 °F - 48.2 °F 94% 30.15 in 10.0 mi SSE 9.2 mph - N/A   Clear
1:35 AM 51.8 °F - 48.2 °F 88% 30.15 in 10.0 mi SSE 10.4 mph - N/A   Clear
1:55 AM 50.0 °F - 48.2 °F 94% 30.15 in 10.0 mi SSE 9.2 mph - N/A   Clear
2:15 AM 48.2 °F - 46.4 °F 93% 30.15 in 10.0 mi SE 9.2 mph - N/A   Clear
2:35 AM 48.2 °F - 46.4 °F 93% 30.16 in 10.0 mi SE 6.9 mph - N/A   Clear
2:55 AM 48.2 °F - 46.4 °F 93% 30.15 in 10.0 mi SE 8.1 mph - N/A   Clear
3:15 AM 50.0 °F - 46.4 °F 87% 30.15 in 10.0 mi SSE 5.8 mph - N/A   Clear
3:35 AM 51.8 °F - 46.4 °F 82% 30.15 in 10.0 mi SE 6.9 mph - N/A   Clear
3:55 AM 50.0 °F - 48.2 °F 94% 30.15 in 10.0 mi SE 8.1 mph - N/A   Clear
4:15 AM 48.2 °F - 46.4 °F 93% 30.15 in 10.0 mi SE 8.1 mph - N/A   Clear
4:35 AM 46.4 °F 43.5 °F 46.4 °F 100% 30.16 in 10.0 mi ESE 5.8 mph - N/A   Clear
4:55 AM 46.4 °F 45.2 °F 46.4 °F 100% 30.17 in 10.0 mi SE 3.5 mph - N/A   Clear
5:15 AM 48.2 °F - 46.4 °F 93% 30.18 in 10.0 mi East 3.5 mph - N/A   Clear
5:35 AM 48.2 °F - 46.4 °F 93% 30.19 in 10.0 mi ENE 4.6 mph - N/A   Clear
5:55 AM 48.2 °F - 46.4 °F 93% 30.20 in 10.0 mi East 3.5 mph - N/A   Clear
6:15 AM 48.2 °F - 48.2 °F 100% 30.20 in 10.0 mi ESE 4.6 mph - N/A   Clear
6:35 AM 48.2 °F - 48.2 °F 100% 30.20 in 10.0 mi SE 5.8 mph - N/A   Clear
6:55 AM 48.2 °F - 46.4 °F 93% 30.20 in 10.0 mi ESE 4.6 mph - N/A   Clear
7:15 AM 48.2 °F - 48.2 °F 100% 30.20 in 10.0 mi ESE 5.8 mph - N/A   Clear
7:35 AM 48.2 °F - 48.2 °F 100% 30.20 in 10.0 mi SE 6.9 mph - N/A   Clear
7:55 AM 46.4 °F 42.9 °F 46.4 °F 100% 30.20 in 10.0 mi SE 6.9 mph - N/A   Clear
8:15 AM 46.4 °F 43.5 °F 46.4 °F 100% 30.21 in 10.0 mi SE 5.8 mph - N/A   Clear
8:35 AM 48.2 °F - 46.4 °F 93% 30.21 in 10.0 mi SE 6.9 mph - N/A   Clear
8:55 AM 51.8 °F - 50.0 °F 94% 30.21 in 10.0 mi SE 6.9 mph - N/A   Clear
9:15 AM 53.6 °F - 50.0 °F 88% 30.21 in 10.0 mi SE 9.2 mph - N/A   Clear
9:35 AM 53.6 °F - 50.0 °F 88% 30.21 in 10.0 mi SE 8.1 mph - N/A   Clear
9:55 AM 57.2 °F - 51.8 °F 82% 30.21 in 10.0 mi SSE 6.9 mph - N/A   Clear
10:15 AM 59.0 °F - 51.8 °F 77% 30.21 in 10.0 mi SSE 8.1 mph - N/A   Clear
10:35 AM 60.8 °F - 51.8 °F 72% 30.21 in 10.0 mi South 6.9 mph - N/A   Clear
10:55 AM 62.6 °F - 51.8 °F 68% 30.22 in 10.0 mi South 10.4 mph 16.1 mph N/A   Clear
11:15 AM 64.4 °F - 51.8 °F 64% 30.21 in 10.0 mi South 10.4 mph 16.1 mph N/A   Clear
11:35 AM 64.4 °F - 53.6 °F 68% 30.22 in 10.0 mi SW 6.9 mph 17.3 mph N/A   Clear
11:55 AM 66.2 °F - 53.6 °F 64% 30.22 in 10.0 mi South 10.4 mph - N/A   Clear
12:15 PM 66.2 °F - 53.6 °F 64% 30.21 in 10.0 mi South 9.2 mph - N/A   Clear
12:35 PM 66.2 °F - 53.6 °F 64% 30.21 in 10.0 mi South 10.4 mph 17.3 mph N/A   Clear
12:55 PM 68.0 °F - 53.6 °F 60% 30.21 in 10.0 mi SSW 10.4 mph 16.1 mph N/A   Clear
1:15 PM 69.8 °F - 53.6 °F 56% 30.21 in 10.0 mi SW 12.7 mph 17.3 mph N/A   Clear
1:35 PM 69.8 °F - 51.8 °F 53% 30.20 in 10.0 mi SSW 9.2 mph 16.1 mph N/A   Clear
1:55 PM 69.8 °F - 51.8 °F 53% 30.20 in 10.0 mi SSW 9.2 mph 17.3 mph N/A   Clear
2:15 PM 71.6 °F - 53.6 °F 53% 30.19 in 10.0 mi South 9.2 mph - N/A   Clear
2:35 PM 69.8 °F - 51.8 °F 53% 30.19 in 10.0 mi SW 11.5 mph 18.4 mph N/A   Clear
2:55 PM 69.8 °F - 51.8 °F 53% 30.19 in 10.0 mi SSW 11.5 mph 16.1 mph N/A   Clear
3:15 PM 71.6 °F - 51.8 °F 50% 30.19 in 10.0 mi SW 8.1 mph - N/A   Clear
3:35 PM 69.8 °F - 51.8 °F 53% 30.19 in 3.0 mi SSW 11.5 mph 18.4 mph N/A   Clear
3:55 PM 71.6 °F - 51.8 °F 50% 30.18 in 10.0 mi SSW 10.4 mph 17.3 mph N/A   Clear
4:15 PM 69.8 °F - 51.8 °F 53% 30.19 in 10.0 mi WSW 10.4 mph - N/A   Clear
4:35 PM 69.8 °F - 51.8 °F 53% 30.19 in 10.0 mi SW 8.1 mph 16.1 mph N/A   Clear
4:55 PM 69.8 °F - 51.8 °F 53% 30.18 in 10.0 mi SW 9.2 mph 16.1 mph N/A   Clear
5:15 PM 68.0 °F - 51.8 °F 56% 30.18 in 10.0 mi SW 8.1 mph - N/A   Clear
5:35 PM 68.0 °F - 51.8 °F 56% 30.18 in 10.0 mi SW 9.2 mph - N/A   Clear
5:55 PM 66.2 °F - 51.8 °F 60% 30.19 in 10.0 mi SW 4.6 mph - N/A   Clear
6:15 PM 66.2 °F - 51.8 °F 60% 30.19 in 10.0 mi WSW 10.4 mph - N/A   Clear
6:35 PM 64.4 °F - 51.8 °F 64% 30.18 in 10.0 mi WSW 5.8 mph - N/A   Clear
6:55 PM 64.4 °F - 51.8 °F 64% 30.18 in 10.0 mi WSW 5.8 mph - N/A   Clear
7:15 PM 62.6 °F - 51.8 °F 68% 30.18 in 10.0 mi SW 3.5 mph - N/A   Clear
7:35 PM 60.8 °F - 51.8 °F 72% 30.18 in 10.0 mi South 3.5 mph - N/A   Clear
7:55 PM 60.8 °F - 51.8 °F 72% 30.18 in 10.0 mi South 4.6 mph - N/A   Clear
8:15 PM 57.2 °F - 51.8 °F 82% 30.18 in 10.0 mi South 4.6 mph - N/A   Clear
8:35 PM 59.0 °F - 51.8 °F 77% 30.18 in 10.0 mi South 6.9 mph - N/A   Clear
8:55 PM 57.2 °F - 50.0 °F 77% 30.18 in 10.0 mi SE 4.6 mph - N/A   Clear
9:15 PM 55.4 °F - 51.8 °F 88% 30.19 in 10.0 mi ESE 3.5 mph - N/A   Clear
9:35 PM 55.4 °F - 50.0 °F 82% 30.19 in 10.0 mi East 3.5 mph - N/A   Clear
9:55 PM 55.4 °F - 51.8 °F 88% 30.19 in 10.0 mi SSE 3.5 mph - N/A   Clear
10:15 PM 53.6 °F - 51.8 °F 94% 30.19 in 10.0 mi SE 4.6 mph - N/A   Clear
10:35 PM 53.6 °F - 51.8 °F 94% 30.19 in 10.0 mi SSE 6.9 mph - N/A   Clear
10:55 PM 51.8 °F - 50.0 °F 94% 30.19 in 10.0 mi SE 5.8 mph - N/A   Clear
11:15 PM 53.6 °F - 51.8 °F 94% 30.19 in 10.0 mi SSE 4.6 mph - N/A   Clear
11:35 PM 51.8 °F - 50.0 °F 94% 30.19 in 10.0 mi SSE 5.8 mph - N/A   Clear
11:55 PM 50.0 °F - 50.0 °F 100% 30.18 in 10.0 mi SSE 4.6 mph - N/A   Clear